CJX892 ZLLL-ZSPD

Flight info

Callsign CJX892
Flight time 2h 28m
Altitude 35100
Route UKBIN W214 HO W154 XODAS DCT ATGEN W283 SUDGO DCT NUGSA DCT ML DCT ATMEM DCT FYG B208 HFE R343 SASAN
Aircraft A320/M-SDE3FGHIRWY/LB1

Departure

Time 2026-04-18 00:45
Airport Lanzhou Zhongchuan International Airport (ZLLL)

Arrival

Time 2026-04-18 03:14
Airport Shanghai Pudong International Airport (ZSPD)
Time Latitude Longitude Altitude Speed Heading
2026-04-18 00:36 36.50793 103.61721 6346 ft 0 kts 268°
2026-04-18 00:38 36.50795 103.61749 6346 ft 4 kts 261°
2026-04-18 00:38 36.50801 103.61782 6346 ft 4 kts 246°
2026-04-18 00:38 36.50815 103.61808 6346 ft 4 kts 208°
2026-04-18 00:38 36.50826 103.61813 6342 ft 0 kts 178°
2026-04-18 00:40 36.50825 103.61813 6342 ft 1 kts 178°
2026-04-18 00:40 36.50775 103.61819 6342 ft 10 kts 176°
2026-04-18 00:40 36.50688 103.61828 6343 ft 17 kts 168°
2026-04-18 00:40 36.50614 103.61925 6342 ft 16 kts 168°
2026-04-18 00:41 36.50495 103.61937 6340 ft 18 kts 178°
2026-04-18 00:41 36.50361 103.61944 6338 ft 20 kts 177°
2026-04-18 00:41 36.50208 103.61956 6335 ft 24 kts 177°
2026-04-18 00:41 36.50034 103.61965 6331 ft 26 kts 178°
2026-04-18 00:42 36.49923 103.61998 6329 ft 8 kts 96°
2026-04-18 00:42 36.49919 103.62067 6329 ft 10 kts 94°
2026-04-18 00:42 36.49933 103.62147 6329 ft 9 kts 52°
2026-04-18 00:42 36.49986 103.62177 6330 ft 8 kts
2026-04-18 00:43 36.49993 103.62177 6330 ft 0 kts 359°
2026-04-18 00:44 36.50001 103.62177 6331 ft 6 kts 359°
2026-04-18 00:44 36.50164 103.62166 6334 ft 53 kts 357°
2026-04-18 00:45 36.50751 103.62130 6344 ft 114 kts 357°
2026-04-18 00:45 36.51717 103.62068 6361 ft 162 kts 357°
2026-04-18 00:45 36.52950 103.61997 6651 ft 182 kts 358°
2026-04-18 00:45 36.54183 103.61937 7281 ft 174 kts 356°
2026-04-18 00:46 36.55457 103.61865 7673 ft 194 kts 355°
2026-04-18 00:46 36.56858 103.61781 7952 ft 213 kts 355°
2026-04-18 00:46 36.58397 103.61689 8183 ft 233 kts 355°
2026-04-18 00:46 36.60077 103.61589 8533 ft 253 kts 355°
2026-04-18 00:47 36.61882 103.61482 9123 ft 264 kts 354°
2026-04-18 00:47 36.63725 103.61375 9837 ft 267 kts 354°
2026-04-18 00:47 36.65603 103.61256 10552 ft 270 kts 352°
2026-04-18 00:47 36.67394 103.60812 10998 ft 262 kts 336°
2026-04-18 00:48 36.68939 103.59630 11299 ft 263 kts 314°
2026-04-18 00:48 36.70006 103.57787 11710 ft 268 kts 293°
2026-04-18 00:48 36.70480 103.55536 12330 ft 272 kts 274°
2026-04-18 00:49 36.69442 103.51012 13630 ft 283 kts 234°
2026-04-18 00:49 36.68044 103.49306 14221 ft 288 kts 221°
2026-04-18 00:49 36.66430 103.47854 14812 ft 289 kts 218°
2026-04-18 00:49 36.64738 103.46423 15176 ft 303 kts 214°
2026-04-18 00:50 36.62744 103.45330 15523 ft 322 kts 198°
2026-04-18 00:50 36.60485 103.44996 16095 ft 334 kts 181°
2026-04-18 00:50 36.58147 103.45128 16732 ft 338 kts 179°
2026-04-18 00:50 36.55782 103.45300 17415 ft 342 kts 179°
2026-04-18 00:51 36.53392 103.45490 18062 ft 346 kts 179°
2026-04-18 00:51 36.50975 103.45685 18654 ft 350 kts 179°
2026-04-18 00:51 36.48560 103.45875 19199 ft 353 kts 180°
2026-04-18 00:51 36.46092 103.46062 19700 ft 358 kts 180°
2026-04-18 00:52 36.43570 103.46234 19816 ft 371 kts 180°
2026-04-18 00:52 36.40940 103.46402 19937 ft 387 kts 179°
2026-04-18 00:52 36.38241 103.47022 20060 ft 406 kts 164°
2026-04-18 00:52 36.35645 103.48576 20181 ft 421 kts 147°
2026-04-18 00:53 36.33442 103.51035 20307 ft 434 kts 129°
2026-04-18 00:53 36.31848 103.54242 20429 ft 444 kts 111°
2026-04-18 00:53 36.31009 103.57942 20685 ft 449 kts 98°
2026-04-18 00:53 36.30457 103.61770 20991 ft 452 kts 98°
2026-04-18 00:54 36.29904 103.65627 21396 ft 456 kts 98°
2026-04-18 00:54 36.29345 103.69514 21839 ft 460 kts 98°
2026-04-18 00:54 36.28780 103.73426 22267 ft 463 kts 98°
2026-04-18 00:54 36.28211 103.77369 22691 ft 466 kts 98°
2026-04-18 00:55 36.27640 103.81337 23089 ft 470 kts 98°
2026-04-18 00:55 36.27063 103.85335 23481 ft 473 kts 98°
2026-04-18 00:55 36.26477 103.89363 23830 ft 476 kts 97°
2026-04-18 00:55 36.25886 103.93409 24166 ft 478 kts 97°
2026-04-18 00:56 36.25297 103.97424 24497 ft 481 kts 97°
2026-04-18 00:56 36.24695 104.01517 24832 ft 484 kts 97°
2026-04-18 00:56 36.24093 104.05627 25165 ft 487 kts 97°
2026-04-18 00:56 36.23484 104.09767 25489 ft 489 kts 97°
2026-04-18 00:57 36.22872 104.13915 25820 ft 491 kts 97°
2026-04-18 00:57 36.22252 104.18097 26113 ft 494 kts 98°
2026-04-18 00:57 36.21627 104.22295 26420 ft 497 kts 97°
2026-04-18 00:57 36.20997 104.26515 26765 ft 498 kts 97°
2026-04-18 00:58 36.20335 104.30737 27070 ft 502 kts 101°
2026-04-18 00:58 36.19293 104.34878 27351 ft 507 kts 109°
2026-04-18 00:58 36.17778 104.38838 27628 ft 512 kts 118°
2026-04-18 00:58 36.15961 104.42649 27889 ft 515 kts 119°
2026-04-18 00:59 36.14133 104.46465 28203 ft 516 kts 119°
2026-04-18 00:59 36.12332 104.50226 28611 ft 515 kts 119°
2026-04-18 00:59 36.10509 104.54035 28978 ft 515 kts 119°
2026-04-18 00:59 36.08686 104.57843 29354 ft 515 kts 119°
2026-04-18 01:00 36.06856 104.61656 29756 ft 515 kts 119°
2026-04-18 01:00 36.05025 104.65464 30106 ft 515 kts 119°
2026-04-18 01:00 36.03196 104.69272 30424 ft 515 kts 119°
2026-04-18 01:00 36.01370 104.73070 30767 ft 514 kts 119°
2026-04-18 01:01 35.99544 104.76865 31129 ft 513 kts 119°
2026-04-18 01:01 35.97722 104.80647 31511 ft 512 kts 119°
2026-04-18 01:01 35.95899 104.84423 31886 ft 511 kts 119°
2026-04-18 01:01 35.94084 104.88175 32177 ft 508 kts 120°
2026-04-18 01:02 35.92272 104.91917 32496 ft 509 kts 120°
2026-04-18 01:02 35.90454 104.95662 32863 ft 508 kts 119°
2026-04-18 01:02 35.88637 104.99402 33206 ft 507 kts 119°
2026-04-18 01:02 35.86841 105.03114 33473 ft 502 kts 119°
2026-04-18 01:03 35.85051 105.06832 33697 ft 504 kts 119°
2026-04-18 01:03 35.83265 105.10552 34002 ft 505 kts 119°
2026-04-18 01:03 35.81476 105.14279 34285 ft 503 kts 119°
2026-04-18 01:03 35.79689 105.17983 34508 ft 503 kts 120°
2026-04-18 01:04 35.77897 105.21676 34800 ft 503 kts 120°
2026-04-18 01:04 35.76098 105.25373 35017 ft 503 kts 120°
2026-04-18 01:04 35.72501 105.32776 35081 ft 504 kts 119°
2026-04-18 01:05 35.68901 105.40175 35085 ft 504 kts 119°
2026-04-18 01:05 35.65314 105.47530 35082 ft 504 kts 119°
2026-04-18 01:06 35.61702 105.54924 35083 ft 504 kts 119°
2026-04-18 01:06 35.58083 105.62309 35091 ft 504 kts 120°
2026-04-18 01:07 35.54539 105.69750 35086 ft 503 kts 113°
2026-04-18 01:07 35.52350 105.77827 35077 ft 495 kts 96°
2026-04-18 01:08 35.51131 105.86144 35062 ft 493 kts 96°
2026-04-18 01:08 35.49880 105.94393 35058 ft 495 kts 96°
2026-04-18 01:09 35.48615 106.02707 35069 ft 495 kts 96°
2026-04-18 01:09 35.47358 106.11015 35061 ft 495 kts 96°
2026-04-18 01:10 35.46094 106.19321 35060 ft 495 kts 96°
2026-04-18 01:10 35.44830 106.27627 35052 ft 495 kts 96°
2026-04-18 01:11 35.43559 106.35929 35061 ft 495 kts 96°
2026-04-18 01:11 35.42277 106.44223 35052 ft 495 kts 96°
2026-04-18 01:12 35.40984 106.52530 35034 ft 495 kts 96°
2026-04-18 01:12 35.39695 106.60825 35034 ft 495 kts 96°
2026-04-18 01:13 35.38407 106.69060 35020 ft 495 kts 96°
2026-04-18 01:13 35.37104 106.77350 35034 ft 495 kts 96°
2026-04-18 01:14 35.35799 106.85625 35038 ft 494 kts 96°
2026-04-18 01:14 35.34484 106.93882 35031 ft 494 kts 96°
2026-04-18 01:15 35.33163 107.02142 35025 ft 494 kts 96°
2026-04-18 01:15 35.31858 107.10390 35036 ft 493 kts 96°
2026-04-18 01:16 35.30550 107.18631 35032 ft 493 kts 96°
2026-04-18 01:16 35.29226 107.26869 35025 ft 493 kts 96°
2026-04-18 01:17 35.27895 107.35102 35023 ft 492 kts 96°
2026-04-18 01:17 35.26577 107.43268 35034 ft 492 kts 96°
2026-04-18 01:18 35.25227 107.51539 35027 ft 492 kts 96°
2026-04-18 01:18 35.23879 107.59685 35022 ft 492 kts 97°
2026-04-18 01:19 35.22507 107.67884 35020 ft 492 kts 97°
2026-04-18 01:19 35.20470 107.75898 35039 ft 499 kts 112°
2026-04-18 01:20 35.17351 107.81872 35030 ft 504 kts 128°
2026-04-18 01:20 35.11922 107.89395 35026 ft 505 kts 130°
2026-04-18 01:21 35.08050 107.94740 35020 ft 505 kts 130°
2026-04-18 01:21 35.03388 108.01157 35018 ft 505 kts 130°
2026-04-18 01:22 34.98715 108.07577 35019 ft 506 kts 130°
2026-04-18 01:22 34.94024 108.13981 35019 ft 506 kts 133°
2026-04-18 01:23 34.88513 108.19290 35024 ft 507 kts 150°
2026-04-18 01:23 34.82192 108.23095 35007 ft 507 kts 155°
2026-04-18 01:24 34.75829 108.26832 35015 ft 508 kts 155°
2026-04-18 01:24 34.69463 108.30570 35016 ft 508 kts 155°
2026-04-18 01:25 34.63087 108.34302 35018 ft 509 kts 155°
2026-04-18 01:25 34.56696 108.38031 35013 ft 509 kts 155°
2026-04-18 01:26 34.50299 108.41755 35013 ft 510 kts 155°
2026-04-18 01:26 34.43907 108.45470 35030 ft 510 kts 155°
2026-04-18 01:27 34.37551 108.49160 35033 ft 509 kts 155°
2026-04-18 01:27 34.31153 108.52867 35019 ft 509 kts 155°
2026-04-18 01:28 34.24750 108.56577 35026 ft 510 kts 155°
2026-04-18 01:28 34.18351 108.60274 35032 ft 510 kts 155°
2026-04-18 01:29 34.11947 108.63966 35034 ft 510 kts 155°
2026-04-18 01:29 34.05797 108.68206 35042 ft 509 kts 142°
2026-04-18 01:30 34.00779 108.74172 35034 ft 507 kts 128°
2026-04-18 01:30 33.96220 108.80590 35067 ft 507 kts 129°
2026-04-18 01:31 33.91620 108.87023 35074 ft 505 kts 129°
2026-04-18 01:31 33.87034 108.93428 35076 ft 505 kts 129°
2026-04-18 01:32 33.82447 108.99834 35094 ft 505 kts 129°
2026-04-18 01:32 33.77854 109.06236 35089 ft 504 kts 129°
2026-04-18 01:33 33.73269 109.12605 35105 ft 504 kts 129°
2026-04-18 01:33 33.68678 109.18973 35117 ft 503 kts 130°
2026-04-18 01:34 33.64128 109.25274 35123 ft 502 kts 130°
2026-04-18 01:34 33.59552 109.31609 35127 ft 502 kts 130°
2026-04-18 01:35 33.54980 109.37927 35125 ft 501 kts 130°
2026-04-18 01:35 33.50401 109.44238 35124 ft 501 kts 130°
2026-04-18 01:36 33.45972 109.50676 35136 ft 499 kts 122°
2026-04-18 01:36 33.44295 109.54303 35139 ft 496 kts 111°
2026-04-18 01:36 33.43136 109.58177 35137 ft 492 kts 102°
2026-04-18 01:37 33.42430 109.66212 35133 ft 482 kts 82°
2026-04-18 01:37 33.43185 109.74145 35129 ft 480 kts 79°
2026-04-18 01:38 33.43954 109.82034 35140 ft 480 kts 79°
2026-04-18 01:38 33.44705 109.89973 35136 ft 480 kts 79°
2026-04-18 01:39 33.45459 109.97925 35131 ft 480 kts 79°
2026-04-18 01:39 33.46221 110.05888 35129 ft 480 kts 79°
2026-04-18 01:40 33.46971 110.13850 35148 ft 481 kts 80°
2026-04-18 01:40 33.47720 110.21820 35144 ft 481 kts 80°
2026-04-18 01:41 33.48458 110.29729 35135 ft 481 kts 80°
2026-04-18 01:41 33.49195 110.37698 35138 ft 480 kts 80°
2026-04-18 01:42 33.49920 110.45656 35137 ft 481 kts 80°
2026-04-18 01:42 33.50645 110.53615 35152 ft 481 kts 80°
2026-04-18 01:43 33.51365 110.61580 35148 ft 481 kts 80°
2026-04-18 01:43 33.52082 110.69545 35144 ft 481 kts 80°
2026-04-18 01:44 33.52789 110.77511 35147 ft 481 kts 81°
2026-04-18 01:44 33.52948 110.85494 35146 ft 486 kts 95°
2026-04-18 01:45 33.51142 110.93299 35134 ft 490 kts 112°
2026-04-18 01:45 33.48430 111.00794 35134 ft 491 kts 112°
2026-04-18 01:46 33.45733 111.08303 35134 ft 491 kts 112°
2026-04-18 01:46 33.43032 111.15806 35142 ft 491 kts 112°
2026-04-18 01:47 33.40314 111.23320 35140 ft 491 kts 112°
2026-04-18 01:47 33.37594 111.30816 35141 ft 491 kts 112°
2026-04-18 01:48 33.34872 111.38306 35136 ft 491 kts 112°
2026-04-18 01:48 33.32146 111.45798 35120 ft 491 kts 112°
2026-04-18 01:49 33.29433 111.53236 35124 ft 492 kts 112°
2026-04-18 01:49 33.26690 111.60733 35129 ft 492 kts 113°
2026-04-18 01:50 33.23939 111.68222 35135 ft 492 kts 113°
2026-04-18 01:50 33.21180 111.75726 35138 ft 492 kts 113°
2026-04-18 01:51 33.18423 111.83215 35144 ft 492 kts 113°
2026-04-18 01:51 33.15661 111.90700 35147 ft 492 kts 113°
2026-04-18 01:52 33.12896 111.98163 35147 ft 492 kts 113°
2026-04-18 01:52 33.10127 112.05642 35147 ft 492 kts 113°
2026-04-18 01:53 33.07356 112.13107 35151 ft 492 kts 114°
2026-04-18 01:54 33.03206 112.24253 35146 ft 492 kts 114°
2026-04-18 01:54 33.00420 112.31699 35146 ft 492 kts 114°
2026-04-18 01:55 32.97625 112.39149 35141 ft 492 kts 114°
2026-04-18 01:55 32.94829 112.46580 35134 ft 491 kts 114°
2026-04-18 01:56 32.92358 112.54149 35129 ft 491 kts 103°
2026-04-18 01:56 32.91614 112.62189 35117 ft 488 kts 89°
2026-04-18 01:57 32.91556 112.70276 35117 ft 489 kts 89°
2026-04-18 01:57 32.91489 112.78375 35119 ft 489 kts 89°
2026-04-18 01:58 32.91419 112.86430 35118 ft 490 kts 89°
2026-04-18 01:58 32.91342 112.94550 35119 ft 490 kts 90°
2026-04-18 01:59 32.91260 113.02658 35115 ft 490 kts 90°
2026-04-18 01:59 32.91171 113.10772 35120 ft 490 kts 90°
2026-04-18 02:00 32.91082 113.18885 35116 ft 490 kts 90°
2026-04-18 02:00 32.90987 113.27003 35115 ft 490 kts 90°
2026-04-18 02:01 32.90880 113.35121 35114 ft 490 kts 90°
2026-04-18 02:01 32.90778 113.43234 35106 ft 490 kts 90°
2026-04-18 02:02 32.90667 113.51342 35097 ft 490 kts 90°
2026-04-18 02:02 32.90545 113.59411 35102 ft 491 kts 90°
2026-04-18 02:03 32.90421 113.67541 35097 ft 491 kts 90°
2026-04-18 02:03 32.90289 113.75669 35120 ft 491 kts 90°
2026-04-18 02:04 32.90151 113.83799 35117 ft 491 kts 90°
2026-04-18 02:04 32.90037 113.90560 35117 ft 491 kts 90°
2026-04-18 02:05 32.89897 113.98687 35119 ft 491 kts 90°
2026-04-18 02:05 32.89751 114.06817 35118 ft 491 kts 91°
2026-04-18 02:06 32.89594 114.14939 35114 ft 491 kts 91°
2026-04-18 02:06 32.89431 114.23079 35113 ft 491 kts 91°
2026-04-18 02:07 32.89267 114.31213 35119 ft 491 kts 91°
2026-04-18 02:07 32.89096 114.39342 35112 ft 492 kts 91°
2026-04-18 02:08 32.88918 114.47483 35104 ft 492 kts 91°
2026-04-18 02:08 32.88742 114.55628 35112 ft 493 kts 91°
2026-04-18 02:09 32.88559 114.63743 35116 ft 493 kts 91°
2026-04-18 02:09 32.88386 114.71902 35122 ft 493 kts 90°
2026-04-18 02:10 32.88390 114.80069 35121 ft 493 kts 89°
2026-04-18 02:10 32.88477 114.88244 35125 ft 493 kts 89°
2026-04-18 02:11 32.88526 114.96409 35130 ft 494 kts 89°
2026-04-18 02:11 32.88522 115.04576 35148 ft 493 kts 90°
2026-04-18 02:12 32.88499 115.12681 35148 ft 492 kts 90°
2026-04-18 02:12 32.88495 115.20819 35146 ft 492 kts 90°
2026-04-18 02:13 32.88493 115.28966 35149 ft 492 kts 90°
2026-04-18 02:13 32.88480 115.37100 35139 ft 492 kts 90°
2026-04-18 02:14 32.88453 115.45235 35140 ft 492 kts 90°
2026-04-18 02:14 32.88425 115.53384 35141 ft 492 kts 90°
2026-04-18 02:15 32.88391 115.61527 35142 ft 492 kts 90°
2026-04-18 02:15 32.87840 115.69557 35143 ft 490 kts 104°
2026-04-18 02:16 32.85343 115.77015 35147 ft 485 kts 123°
2026-04-18 02:16 32.81269 115.83341 35140 ft 481 kts 133°
2026-04-18 02:17 32.76969 115.89438 35138 ft 481 kts 133°
2026-04-18 02:17 32.72662 115.95539 35141 ft 481 kts 133°
2026-04-18 02:18 32.68919 116.00828 35134 ft 482 kts 133°
2026-04-18 02:18 32.65233 116.06031 35135 ft 482 kts 133°
2026-04-18 02:19 32.60906 116.12129 35122 ft 483 kts 133°
2026-04-18 02:19 32.56558 116.18236 35123 ft 485 kts 133°
2026-04-18 02:20 32.52285 116.24360 35130 ft 486 kts 132°
2026-04-18 02:20 32.48036 116.30606 35127 ft 487 kts 132°
2026-04-18 02:21 32.43775 116.36841 35132 ft 487 kts 133°
2026-04-18 02:21 32.39491 116.43049 35138 ft 487 kts 133°
2026-04-18 02:22 32.35193 116.49244 35141 ft 487 kts 133°
2026-04-18 02:22 32.30897 116.55442 35143 ft 487 kts 133°
2026-04-18 02:23 32.26603 116.61646 35117 ft 488 kts 133°
2026-04-18 02:23 32.22285 116.67866 35127 ft 489 kts 133°
2026-04-18 02:24 32.17957 116.74078 35139 ft 490 kts 134°
2026-04-18 02:24 32.13594 116.80199 35152 ft 490 kts 134°
2026-04-18 02:25 32.09129 116.86349 35166 ft 490 kts 135°
2026-04-18 02:25 32.04726 116.92419 35161 ft 490 kts 135°
2026-04-18 02:26 32.00302 116.98554 35165 ft 491 kts 135°
2026-04-18 02:26 31.95879 117.04694 35174 ft 491 kts 135°
2026-04-18 02:27 31.91450 117.10846 35155 ft 491 kts 135°
2026-04-18 02:27 31.87019 117.16988 35152 ft 492 kts 135°
2026-04-18 02:28 31.82583 117.23127 35125 ft 492 kts 136°
2026-04-18 02:28 31.78847 117.29862 35134 ft 503 kts 118°
2026-04-18 02:29 31.76981 117.37832 35135 ft 511 kts 98°
2026-04-18 02:29 31.76411 117.46167 35134 ft 512 kts 97°
2026-04-18 02:30 31.75838 117.54537 35122 ft 513 kts 97°
2026-04-18 02:30 31.75244 117.62914 35127 ft 514 kts 97°
2026-04-18 02:31 31.74647 117.71243 35132 ft 515 kts 97°
2026-04-18 02:31 31.74044 117.79653 35140 ft 516 kts 97°
2026-04-18 02:32 31.73443 117.88062 35152 ft 516 kts 97°
2026-04-18 02:32 31.72839 117.96471 35185 ft 517 kts 97°
2026-04-18 02:33 31.72223 118.04868 35189 ft 515 kts 97°
2026-04-18 02:33 31.71599 118.13249 35179 ft 515 kts 98°
2026-04-18 02:34 31.71013 118.21634 35161 ft 515 kts 97°
2026-04-18 02:34 31.70446 118.30020 35177 ft 515 kts 97°
2026-04-18 02:35 31.69864 118.38349 35142 ft 515 kts 98°
2026-04-18 02:35 31.69263 118.46730 35138 ft 515 kts 98°
2026-04-18 02:36 31.68652 118.55119 35138 ft 516 kts 98°
2026-04-18 02:36 31.68035 118.63522 35140 ft 517 kts 98°
2026-04-18 02:37 31.67421 118.71945 35125 ft 518 kts 98°
2026-04-18 02:37 31.66801 118.80370 35128 ft 519 kts 99°
2026-04-18 02:38 31.66162 118.88816 35133 ft 520 kts 99°
2026-04-18 02:38 31.65530 118.97275 35126 ft 520 kts 99°
2026-04-18 02:39 31.64902 119.05744 35138 ft 522 kts 99°
2026-04-18 02:39 31.64419 119.14253 35150 ft 523 kts 97°
2026-04-18 02:40 31.64082 119.22745 35155 ft 524 kts 96°
2026-04-18 02:40 31.63757 119.31304 35132 ft 525 kts 97°
2026-04-18 02:41 31.63371 119.39868 35176 ft 524 kts 97°
2026-04-18 02:41 31.62955 119.48407 35179 ft 524 kts 97°
2026-04-18 02:42 31.62534 119.56926 34690 ft 522 kts 98°
2026-04-18 02:42 31.62326 119.61181 33972 ft 522 kts 97°
2026-04-18 02:42 31.62119 119.65423 33214 ft 520 kts 97°
2026-04-18 02:42 31.61914 119.69655 32472 ft 517 kts 97°
2026-04-18 02:43 31.61717 119.73859 31731 ft 515 kts 96°
2026-04-18 02:43 31.61529 119.78034 30931 ft 510 kts 96°
2026-04-18 02:43 31.61344 119.82197 30042 ft 510 kts 95°
2026-04-18 02:43 31.61160 119.86310 28738 ft 503 kts 96°
2026-04-18 02:44 31.60973 119.90404 27186 ft 503 kts 96°
2026-04-18 02:44 31.60782 119.94501 25598 ft 502 kts 95°
2026-04-18 02:44 31.60586 119.98586 24290 ft 497 kts 95°
2026-04-18 02:44 31.60394 120.02581 23185 ft 485 kts 95°
2026-04-18 02:45 31.60209 120.06442 21969 ft 475 kts 95°
2026-04-18 02:45 31.60023 120.10271 20816 ft 466 kts 95°
2026-04-18 02:45 31.59839 120.14033 19733 ft 458 kts 94°
2026-04-18 02:45 31.59657 120.17754 19157 ft 455 kts 94°
2026-04-18 02:46 31.59474 120.21456 18923 ft 455 kts 94°
2026-04-18 02:46 31.59289 120.25156 18740 ft 454 kts 94°
2026-04-18 02:46 31.59089 120.28842 18621 ft 448 kts 96°
2026-04-18 02:46 31.58626 120.32432 17842 ft 443 kts 103°
2026-04-18 02:47 31.57811 120.35855 17126 ft 437 kts 110°
2026-04-18 02:47 31.56808 120.39199 16416 ft 432 kts 110°
2026-04-18 02:47 31.55824 120.42502 15916 ft 428 kts 111°
2026-04-18 02:47 31.54850 120.45791 15741 ft 426 kts 111°
2026-04-18 02:48 31.54200 120.48003 15754 ft 425 kts 111°
2026-04-18 02:48 31.53234 120.51289 15769 ft 426 kts 111°
2026-04-18 02:48 31.51953 120.55632 15769 ft 426 kts 111°
2026-04-18 02:48 31.50983 120.58915 15767 ft 426 kts 111°
2026-04-18 02:49 31.50339 120.61094 15772 ft 426 kts 111°
2026-04-18 02:49 31.49371 120.64366 15768 ft 426 kts 111°
2026-04-18 02:49 31.48399 120.67641 15768 ft 426 kts 111°
2026-04-18 02:49 31.47421 120.70922 15768 ft 426 kts 111°
2026-04-18 02:50 31.46441 120.74194 15758 ft 426 kts 111°
2026-04-18 02:50 31.45457 120.77472 15761 ft 426 kts 111°
2026-04-18 02:50 31.44479 120.80730 15548 ft 421 kts 111°
2026-04-18 02:50 31.43500 120.83936 14877 ft 416 kts 111°
2026-04-18 02:51 31.42518 120.87100 14247 ft 411 kts 112°
2026-04-18 02:51 31.41539 120.90227 13614 ft 405 kts 112°
2026-04-18 02:51 31.40509 120.93279 13026 ft 400 kts 117°
2026-04-18 02:51 31.39127 120.96112 12840 ft 400 kts 125°
2026-04-18 02:52 31.37427 120.98675 12856 ft 398 kts 130°
2026-04-18 02:52 31.35680 121.01153 12863 ft 399 kts 130°
2026-04-18 02:52 31.33918 121.03661 12865 ft 398 kts 130°
2026-04-18 02:52 31.32158 121.06166 12867 ft 399 kts 130°
2026-04-18 02:53 31.30396 121.08671 12870 ft 399 kts 130°
2026-04-18 02:53 31.28630 121.11176 12871 ft 398 kts 130°
2026-04-18 02:53 31.26866 121.13673 12875 ft 398 kts 130°
2026-04-18 02:53 31.25100 121.16169 12876 ft 399 kts 130°
2026-04-18 02:54 31.23330 121.18668 12879 ft 398 kts 130°
2026-04-18 02:54 31.21560 121.21161 12882 ft 399 kts 130°
2026-04-18 02:54 31.19787 121.23657 12884 ft 399 kts 130°
2026-04-18 02:54 31.18017 121.26152 12881 ft 401 kts 130°
2026-04-18 02:55 31.16232 121.28668 12887 ft 403 kts 130°
2026-04-18 02:55 31.14439 121.31192 12884 ft 404 kts 129°
2026-04-18 02:55 31.12862 121.33904 12884 ft 405 kts 120°
2026-04-18 02:55 31.11724 121.36833 12395 ft 399 kts 109°
2026-04-18 02:56 31.10976 121.39944 11601 ft 395 kts 104°
2026-04-18 02:56 31.10287 121.43026 10954 ft 390 kts 104°
2026-04-18 02:56 31.08958 121.48890 10539 ft 355 kts 103°
2026-04-18 02:57 31.08342 121.51567 10341 ft 326 kts 103°
2026-04-18 02:57 31.07771 121.54036 10190 ft 303 kts 104°
2026-04-18 02:57 31.07233 121.56363 9798 ft 292 kts 104°
2026-04-18 02:57 31.06709 121.58632 9176 ft 288 kts 103°
2026-04-18 02:58 31.06193 121.60870 8576 ft 284 kts 104°
2026-04-18 02:58 31.05687 121.63055 7992 ft 281 kts 104°
2026-04-18 02:58 31.05177 121.65248 7402 ft 278 kts 104°
2026-04-18 02:58 31.04634 121.67434 6798 ft 276 kts 111°
2026-04-18 02:59 31.03731 121.69358 6223 ft 274 kts 127°
2026-04-18 02:59 31.02397 121.70922 5607 ft 272 kts 141°
2026-04-18 02:59 31.00751 121.71996 5003 ft 272 kts 158°
2026-04-18 02:59 30.98960 121.72682 4456 ft 266 kts 161°
2026-04-18 03:00 30.97278 121.73313 4319 ft 241 kts 160°
2026-04-18 03:00 30.95754 121.73887 4175 ft 220 kts 160°
2026-04-18 03:00 30.94352 121.74417 4039 ft 204 kts 160°
2026-04-18 03:00 30.93025 121.74919 3750 ft 197 kts 160°
2026-04-18 03:01 30.91723 121.75413 3346 ft 198 kts 160°
2026-04-18 03:01 30.90426 121.75904 3101 ft 197 kts 160°
2026-04-18 03:01 30.89132 121.76391 2988 ft 196 kts 160°
2026-04-18 03:01 30.87842 121.76878 2977 ft 195 kts 160°
2026-04-18 03:02 30.86549 121.77367 2981 ft 195 kts 160°
2026-04-18 03:02 30.85257 121.77857 2975 ft 196 kts 160°
2026-04-18 03:02 30.83962 121.78350 2974 ft 196 kts 160°
2026-04-18 03:02 30.82668 121.78839 2969 ft 196 kts 160°
2026-04-18 03:03 30.81370 121.79326 2973 ft 196 kts 160°
2026-04-18 03:03 30.80073 121.79814 2978 ft 196 kts 160°
2026-04-18 03:03 30.78774 121.80300 2990 ft 196 kts 160°
2026-04-18 03:03 30.77474 121.80788 2987 ft 197 kts 160°
2026-04-18 03:04 30.76255 121.81417 2980 ft 192 kts 136°
2026-04-18 03:04 30.75597 121.82711 2926 ft 186 kts 95°
2026-04-18 03:04 30.75806 121.84152 2813 ft 190 kts 65°
2026-04-18 03:04 30.76247 121.85650 2516 ft 195 kts 72°
2026-04-18 03:05 30.76588 121.87123 2647 ft 184 kts 72°
2026-04-18 03:05 30.76993 121.88529 2878 ft 183 kts 55°
2026-04-18 03:05 30.77958 121.89441 2971 ft 181 kts 22°
2026-04-18 03:05 30.79156 121.89871 2979 ft 180 kts 14°
2026-04-18 03:06 30.80378 121.90208 2978 ft 180 kts 13°
2026-04-18 03:06 30.81602 121.90531 2984 ft 180 kts 13°
2026-04-18 03:06 30.82846 121.90597 2983 ft 181 kts 349°
2026-04-18 03:06 30.84052 121.90171 2988 ft 182 kts 344°
2026-04-18 03:07 30.85258 121.89715 2984 ft 182 kts 343°
2026-04-18 03:07 30.86446 121.89268 2983 ft 182 kts 344°
2026-04-18 03:07 30.87653 121.88814 2983 ft 182 kts 344°
2026-04-18 03:07 30.88864 121.88360 2985 ft 183 kts 343°
2026-04-18 03:08 30.90069 121.87907 2981 ft 182 kts 344°
2026-04-18 03:08 30.91276 121.87453 2981 ft 182 kts 344°
2026-04-18 03:08 30.92484 121.86998 2985 ft 182 kts 344°
2026-04-18 03:08 30.93692 121.86545 2986 ft 183 kts 344°
2026-04-18 03:09 30.94901 121.86092 2983 ft 182 kts 344°
2026-04-18 03:09 30.96106 121.85638 2989 ft 181 kts 343°
2026-04-18 03:09 30.97308 121.85186 2969 ft 183 kts 344°
2026-04-18 03:09 30.98506 121.84735 2866 ft 183 kts 344°
2026-04-18 03:10 30.99718 121.84279 2660 ft 183 kts 344°
2026-04-18 03:10 31.00932 121.83822 2425 ft 183 kts 344°
2026-04-18 03:10 31.02150 121.83363 2183 ft 185 kts 343°
2026-04-18 03:10 31.03380 121.82900 1947 ft 182 kts 343°
2026-04-18 03:11 31.04531 121.82465 1716 ft 165 kts 344°
2026-04-18 03:11 31.05572 121.82072 1477 ft 148 kts 345°
2026-04-18 03:11 31.06487 121.81727 1290 ft 134 kts 344°
2026-04-18 03:11 31.07351 121.81402 1112 ft 127 kts 345°
2026-04-18 03:12 31.08196 121.81084 946 ft 127 kts 345°
2026-04-18 03:12 31.09033 121.80763 742 ft 129 kts 343°
2026-04-18 03:12 31.09871 121.80443 583 ft 125 kts 344°
2026-04-18 03:12 31.10729 121.80136 429 ft 130 kts 343°
2026-04-18 03:13 31.11584 121.79806 273 ft 129 kts 342°
2026-04-18 03:13 31.12439 121.79482 97 ft 129 kts 342°
2026-04-18 03:13 31.13250 121.79179 29 ft 111 kts 342°
2026-04-18 03:13 31.13841 121.78952 22 ft 61 kts 341°
2026-04-18 03:14 31.14136 121.78852 21 ft 18 kts
2026-04-18 03:14 31.14256 121.78881 22 ft 18 kts 13°
2026-04-18 03:14 31.14331 121.78905 24 ft 6 kts 36°
2026-04-18 03:14 31.14335 121.78953 23 ft 6 kts 107°
2026-04-18 03:15 31.14294 121.78993 23 ft 10 kts 160°
2026-04-18 03:15 31.14220 121.79021 22 ft 13 kts 163°
2026-04-18 03:15 31.14127 121.79052 22 ft 15 kts 164°
2026-04-18 03:15 31.14022 121.79093 22 ft 17 kts 160°
2026-04-18 03:16 31.13901 121.79137 22 ft 19 kts 165°
2026-04-18 03:16 31.13775 121.79186 22 ft 13 kts 162°
2026-04-18 03:16 31.13681 121.79223 23 ft 12 kts 157°
2026-04-18 03:16 31.13653 121.79235 23 ft 1 kts 161°
2026-04-18 03:17 31.13615 121.79254 23 ft 10 kts 144°
2026-04-18 03:17 31.13611 121.79332 24 ft 12 kts 72°
2026-04-18 03:17 31.13622 121.79371 23 ft 0 kts 72°
2026-04-18 03:19 31.13625 121.79382 22 ft 4 kts 72°
2026-04-18 03:19 31.13643 121.79451 23 ft 14 kts 72°
2026-04-18 03:19 31.13682 121.79593 23 ft 21 kts 74°
2026-04-18 03:20 31.13688 121.79730 24 ft 17 kts 137°
2026-04-18 03:20 31.13571 121.79781 23 ft 19 kts 163°
2026-04-18 03:20 31.13459 121.79836 24 ft 15 kts 126°
2026-04-18 03:20 31.13468 121.79957 25 ft 16 kts 70°
2026-04-18 03:21 31.13505 121.80091 23 ft 18 kts 73°
2026-04-18 03:21 31.13520 121.80164 25 ft 10 kts 79°
2026-04-18 03:21 31.13534 121.80226 23 ft 4 kts 73°
2026-04-18 03:21 31.13539 121.80243 24 ft 0 kts 72°
2026-04-18 03:22 31.13539 121.80245 24 ft 0 kts 72°